Regional Weather Roundup
Issued by NWS Nashville, TN

Current Version | Previous Version | Text Only | Print | Product List | Glossary Off
Versions: 1 2 3 4 5 6 7 8 9 10 11 12 13 14 15 16 17 18 19 20 21 22 23 24 25 26 27 28 29 30 31 32 33 34 35 36 37 38 39 40 41 42 43 44 45 46 47 48 49 50

000
ASUS44 KOHX 211615
RWROHX
MIDDLE TENNESSEE HOURLY WEATHER ROUNDUP
NATIONAL WEATHER SERVICE NASHVILLE TN
1100 AM CDT TUE OCT 21 2014

NOTE: "FAIR" INDICATES FEW OR NO CLOUDS BELOW 12,000 FEET WITH
NO SIGNIFICANT WEATHER AND/OR OBSTRUCTIONS TO VISIBILITY.

* THESE REPORTS ARE NOT UNDER NWS QUALITY CONTROL AND MAY NOT
  REPORT WEATHER SUCH AS PRECIPITATION AND FOG.


TNZ005>011-023>034-057-059-062>066-078-080-211700
...NORTHERN MIDDLE TENNESSEE...

CITY           SKY/WX    TMP DP  RH WIND       PRES   REMARKS
CLARKSVILLE    SUNNY     65  49  56 NW7       30.08S
CROSSVILLE     MOSUNNY   62  40  44 NW12G20   30.06F
NASHVILLE      SUNNY     67  47  48 NW6       30.08S
SMYRNA         SUNNY     67  50  54 N8        30.09S
SPARTA         SUNNY     63  52  67 CALM      30.07S
$$
TNZ056-058-060-061-075>077-079-093>097-211700
...SOUTHERN MIDDLE TENNESSEE...

CITY           SKY/WX    TMP DP  RH WIND       PRES   REMARKS
COLUMBIA       SUNNY     66  54  63 VRB3      30.07S
FAYETTEVILLE   SUNNY     63  46  55 NE20G38   30.08S
MCMINNVILLE    SUNNY     64  52  63 CALM      30.07F
SHELBYVILLE    SUNNY     66  50  55 N9        30.09R
TULLAHOMA      SUNNY     63  48  59 NW7       30.08F
WINCHESTER     SUNNY     63  52  67 NE3       30.08S
$$


...KEY TO REMARKS...
VSB - VISIBILITY IN MILES
WCI - WIND CHILL INDEX
HX  - HEAT INDEX




USA.gov is the U.S. government's official web portal to all federal, state and local government web resources and services.